Location: ?????
(42.2640°N, 43.4211°E)
Time: 14:42:55
(UTC+00:00)

SL-4 R/B - Pass Details

Date: 07 August 2020
Orbit: 428 x 665 km, 51.6° (Epoch: 19 September)

Event Time Altitude Azimuth Distance (km) Brightness Sun altitude
Exits shadow 00:22:14 - 304° (NW) 2,219 5.0 -16.9°
Reaches altitude 10° 00:23:54 10° 305° (NW) 1,534 4.2 -16.6°
Maximum altitude 00:27:19 85° 32° (NNE) 434 1.5 -16.2°
Drops below altitude 10° 00:30:43 10° 123° (ESE) 1,525 4.5 -15.7°
Sets 00:32:50 0° 124° (SE) 2,402 5.5 -15.4°
